Change the Weather History Date:

Tuesday, January 22, 2013

  Actual Average Record
Temperature  
Mean Temperature 63 °F -  
Max Temperature 78 °F 63 °F 80 °F (1986)
Min Temperature 48 °F 39 °F 22 °F (2007)
Degree Days  
Heating Degree Days 2    
Growing Degree Days 13 (Base 50)    
Moisture  
Dew Point 30 °F    
Average Humidity 33    
Maximum Humidity 48    
Minimum Humidity 15    
Precipitation  
Precipitation 0.00 in - - ()
Sea Level Pressure  
Sea Level Pressure 30.07 in    
Wind  
Wind Speed 7 mph (ESE)    
Max Wind Speed 10 mph    
Max Gust Speed -    
Visibility 10 miles    
Events      
Averages and records for this station are not official NWS values.
T = Trace of Precipitation, MM = Missing Value Source: NWS Daily Summary

Daily Weather History Graph

Daily Weather History Graph

Search for Another Location

Airport or City:

Trip Planner

Search our weather history database for the weather conditions in past years. The results will help you decide how hot, cold, wet, or windy it might be!

Date:

Astronomy

Jan. 22, 2013 Rise Set
Actual Time 7:22 AM MST 5:48 PM MST
Civil Twilight 6:56 AM MST 6:14 PM MST
Nautical Twilight 6:26 AM MST 6:44 PM MST
Astronomical Twilight 5:57 AM MST 7:13 PM MST
Moon 2:16 PM MST (1/22) 3:44 AM MST (1/22)
Length of Visible Light 11h 18m
Length of Day
10h 25m
Waxing Gibbous, 83% of the Moon is Illuminated
Jan 22
Waxing Gibbous
Jan 26
Full
Feb 3
Last Quarter
Feb 10
New
Feb 17
First Quarter

Hourly Weather History & Observations

Time (MST) Temp. Dew Point Humidity Pressure Visibility Wind Dir Wind Speed Gust Speed Precip Events Conditions
12:58 AM 51.4 °F 29.8 °F 44% 30.05 in 10.0 mi SE 9.2 mph - N/A   Clear
1:58 AM 48.7 °F 30.0 °F 48% 30.07 in 10.0 mi SE 9.2 mph - N/A   Clear
2:58 AM 50.2 °F 29.8 °F 46% 30.07 in 10.0 mi SE 8.1 mph - N/A   Clear
3:58 AM 50.5 °F 28.8 °F 43% 30.07 in 10.0 mi SSE 10.4 mph - N/A   Clear
4:58 AM 48.7 °F 28.9 °F 46% 30.07 in 10.0 mi SE 9.2 mph - N/A   Clear
5:58 AM 50.5 °F 29.1 °F 44% 30.09 in 10.0 mi SSE 6.9 mph - N/A   Clear
6:58 AM 49.8 °F 29.5 °F 46% 30.11 in 10.0 mi SE 6.9 mph - N/A   Clear
7:58 AM 49.8 °F 30.6 °F 48% 30.12 in 10.0 mi SE 9.2 mph - N/A   Clear
8:58 AM 55.4 °F 32.5 °F 42% 30.12 in 10.0 mi SE 3.5 mph - N/A   Clear
9:58 AM 64.9 °F 30.6 °F 28% 30.12 in 10.0 mi Variable 1.2 mph - N/A   Clear
10:58 AM 64.9 °F 32.4 °F 30% 30.13 in 10.0 mi WNW 3.5 mph - N/A   Clear
11:58 AM 72.3 °F 32.7 °F 23% 30.08 in 10.0 mi East 2.3 mph - N/A   Clear
12:58 PM 77.2 °F 29.7 °F 18% 30.04 in 10.0 mi NNW 1.2 mph - N/A   Clear
1:58 PM 77.5 °F 28.4 °F 16% 30.03 in 10.0 mi North 4.6 mph - N/A   Clear
2:58 PM 78.4 °F 27.7 °F 16% 30.00 in 10.0 mi West 4.6 mph - N/A   Clear
3:58 PM 78.3 °F 27.5 °F 15% 30.00 in 10.0 mi Calm Calm - N/A   Clear
4:58 PM 77.0 °F 27.9 °F 16% 30.00 in 10.0 mi NNW 6.9 mph - N/A   Clear
5:58 PM 69.8 °F 31.1 °F 24% 30.03 in 10.0 mi NNW 6.9 mph - N/A   Clear
6:58 PM 65.8 °F 31.8 °F 28% 30.05 in 10.0 mi NNW 8.1 mph - N/A   Clear
7:58 PM 64.8 °F 31.3 °F 29% 30.07 in 10.0 mi NNW 4.6 mph - N/A   Clear
8:58 PM 60.6 °F 29.8 °F 31% 30.08 in 10.0 mi West 3.5 mph - N/A   Clear
9:58 PM 53.2 °F 31.5 °F 43% 30.09 in 10.0 mi SE 9.2 mph - N/A   Clear
10:58 PM 53.1 °F 28.0 °F 38% 30.11 in 10.0 mi SE 10.4 mph - N/A   Clear
11:58 PM 52.7 °F 26.6 °F 36% 30.11 in 10.0 mi SE 8.1 mph - N/A   Clear